Terminal Aerodrome Forecast
Issued by NWS Charleston, WV

Current Version | Previous Version | Text Only | Print | Product List | Glossary Off
Versions: 1 2 3 4 5 6 7 8 9 10 11 12 13 14 15 16 17 18 19 20 21 22 23 24 25 26 27 28 29

000
FTUS41 KRLX 201700
TAFEKN
TAF
KEKN 201740Z 2018/2118 VRB04KT P6SM OVC045
     FM202000 21004KT P6SM -SHRA VCTS OVC050CB
      TEMPO 2020/2022 5SM -SHRA OVC050
     FM210000 VRB03KT P6SM BKN050
     FM210500 VRB03KT 2SM BR BKN050
     FM210700 00000KT 1/4SM FG OVC001
     FM211300 00000KT 2SM BR BKN001
     FM211330 22004KT P6SM BKN035=

USA.gov is the U.S. government's official web portal to all federal, state and local government web resources and services.